Location: Kitt Peak
(31.9514°N, 111.6156°W)
Time: 23:45:24
(UTC-07:00)

BlueWalker 3 - Visible Passes

Search period start: 08 December 2022 00:00
Search period end: 18 December 2022 00:00
Orbit: 501 x 518 km, 53.2° (Epoch: 08 December)

Date Brightness Start Highest point End Pass type
(mag) Time Alt. Az. Time Alt. Az. Time Alt. Az.
08 Dec 4.2 18:25:25 10° NNE 18:26:07 11° NNE 18:26:07 11° NNE visible
09 Dec 4.0 18:06:46 10° N 18:08:16 12° NNE 18:09:06 11° NE visible
09 Dec 4.7 19:43:32 10° NW 19:43:58 13° NW 19:43:58 13° NW visible
10 Dec 3.9 17:48:09 10° N 17:49:53 13° NNE 17:51:38 10° ENE visible
10 Dec 3.4 19:25:07 10° NW 19:27:15 31° NW 19:27:15 31° NW visible
11 Dec 1.9 19:06:42 10° NW 19:10:34 77° SW 19:10:55 69° S visible
12 Dec 2.1 18:48:16 10° NW 18:52:07 70° SW 18:55:14 15° SSE visible
13 Dec 2.4 18:29:50 10° NW 18:33:40 64° SW 18:37:29 10° SSE visible
14 Dec 2.6 18:11:25 10° NW 18:15:14 58° SW 18:19:01 10° SSE visible
15 Dec 2.9 17:52:59 10° NW 17:56:47 53° SW 18:00:31 10° SSE visible
